Вернуться в каталог

METEOR 3-3

АктивенПогодаPO
NORAD 20305·PAYLOAD·🇷🇺 Russia

Запущен Oct 24, 1989 с Plesetsk Cosmodrome

Loading…

Ближайшие Пролёты (ближайшие 24 часа)

TLE

СвежийSource: Space-Track

Эпоха: Sep 14, 2026, 08:43 UTC

1 20305U 89086A   26257.36334194 -.00000736  00000-0 -23265-2 0  9994
2 20305  82.5508  45.2889 0006047 312.6834  73.7078 13.04704566758244

Отслеживайте METEOR 3-3 в реальном времени с AllMySat

Download on the App Store